Airfield :
LOGIN :

Register | Disclaimer

   EN    FR    IT 

 










Legend :    VFR   Marginal VFR   IFR   Intensive IFR   Very Intensive IFR
Visi :
Ceiling :
>= 8 km
>= 3000ft
5 to 8 km
1000 to 3000 ft
1500m to 5 km
500 to 1000 ft
800 to 1500m
200 to 500 ft
< 800m
< 200 ft
Symbols :   Thunderstorms  Fog  Heavy snow  Heavy precipitations  Wind > 20 kt
SIGMETs :     Misc.  Thunderstorms  Icing  Turbulence  Mountain Waves  Volcanic Ashes







- Airport Elevation : 0 ft


ETWM - Meppe

CURRENT METAR :
  • 161120Z 23011G21KT 9999 BKN007 06/05 Q1006 GRN

EXPIRED METARs :
  • 161059Z 22012G23KT 6000 -DZ BKN006 06/05 Q1006 YLO
  • 161020Z 23009G19KT 3500 -DZ BR BKN006 06/06 Q1007 YLO
  • 160942Z 24009G24KT 4500 -DZ BR BKN007 07/05 Q1007 GRN
  • 160920Z 23011KT 7000 -DZ BKN007 07/05 Q1007 GRN

TAF N/A
No reported NOTAMs for that airfield.



MET'MAP, your aeronautical weather chart ! - Copyright ORBIFLY December 2007 - Disclaimer

ORBIFLY MET'MAP TEAM :

Programming & Development : Alexandra Zaïnal
Concept & Development : Baudouin d'Aumeries
Co-Development & Prog : Marc-Olivier Méhu
Technical & hardware support : Manuel Goepfert

Contact : metmap@orbifly.com




SOURCES & CREDITS :

   NOAA